STARLINK-32883, 62806

Orbit data source: Space-Track

STARLINK-32883, 62806 is a payload satellite owned by SpaceX/Seattle (US) in LEO that was launched on Fri, 24 Jan 2025 UTC via an FALCON 9 launch vehicle from the Air Force Western Test Range (AFWTR). Payload-class satellites include a variety of spacecraft equipped with specific instruments for various scientific and technological missions. These include communications satellites like Starlink; space stations such as the ISS; scientific satellites like the Hubble; Earth observation satellites from companies like Planet Labs, Umbra, and HawkEye 360; GPS; miniature CubeSats for education and research; and military/defense satellites.

Loading next visibility...
Identifier
62806, 2025-018A
Orbit
LEO
Country
Flag of USUS
Related business
Manufacturer
SpaceX/Seattle
Mission
Operational Commercial Communications
Bus & Motor
STARLINK V2M, Unknown motor
Mass
730 kg wet, ~700 kg dry
Launch date (UTC)
2025-01-24 (8 months ago)
Launch vehicle
FALCON 9
Launch site
Air Force Western Test Range (AFWTR)
Object type
Payload
Rocket body
Debris
Shape & HBR
Box + 2 Pan, 14.5 m
Radar Cross Section
33.884 m², Large (>1 m²)

Expand to show TLE details & history
Last TLE update: 17 hours ago

TLE from 17 hours ago
0 STARLINK-32883
1 62806U 25018A   25259.58700864  .00014657  00000-0  50625-3 0  9993
2 62806  53.1624  38.2075 0000318 122.4157 237.6875 15.30183660 37432
Epoch: 2025-09-16T14:05Z
TLE epoch observation values (Epoch: 2025-09-16T14:05:17.546Z)
Latitude
0.00001°
Longitude
-168.89077°
Altitude
476.28 km
Speed
7.629 km/s
True Right ascension
02h 32m 49s
True Declination
0° 00' 00"
Sunlit
Object was in full shadow at epoch
Visualization orbit readout
Latitude
Unknown
Longitude
Unknown
Altitude
Unknown
Speed
Unknown
Apparent Right ascension
Unknown
Apparent Declination
Unknown
Sunlit
N/A
Visualization observer readout
Local Sidereal Time
00:02:28
Azimuth
Unknown
Elevation
Unknown
Doppler factor
Unknown
Orbital elements
Apogee altitude
475.738 km
Perigee altitude
475.302 km
Semi-major axis
6,853.657 km
Eccentricity
0.00003
Inclination
53.1624°
RAAN
38.2075°
Arg. of periapsis
122.4157°
True anomaly
237.68442°
Mean anomaly
237.6875°
Eccentric anomaly
237.68596°
Mean motion
3.82525 °/min
Orbital period
94.11 mins
BSTAR
0.00050625
Loading maneuver chart data...
Computing Atmospheric mass density...
Loading historical data...
Loading historical data...
Loading historical data...
Loading historical data...
Loading historical data...
Loading historical data...
Loading historical data...

Documentation

Showing up to 5 results
|